User: anonymous   Login
Location: *
(37.5724°S, 58.0067°E)
Time: 00:46:27
(UTC+00:00)
Language:

NOAA 11 - Orbit

View from above orbital plane
View from above orbital plane
View from above satellite
View from above satellite

Ground track
Ground track

The orbit data is extracted from the following two-line orbital elements,

1 19531U 88089A   20336.52119581 -.00000009 +00000-0 +16198-4 0  9997
2 19531 098.4067 346.4800 0011284 007.8506 352.2843 14.15263806661198
Epoch (UTC): 01 December 2020 12:30:31
Eccentricity: 0.0011284
inclination: 98.4067°
perigee height: 833 km
apogee height: 849 km
right ascension of ascending node: 346.4800°
argument of perigee: 7.8506°
revolutions per day: 14.15263806
mean anomaly at epoch: 352.2843°
orbit number at epoch: 66119

The dashed part of the orbit path shows where the satellite is in the earth's shadow,  

DLR